Temperature
18 17 17 17 17 17 17 17 17 17 17 17 17 17 17 16 16 16 16 16 16 16 16 15 15 15 15 15 15 15 15 15 15 15 16 16 16 15 15 15 15 15 15
17 17 17 17 17 17 17 17 17 17 17 17 17 17 17 16 16 16 16 16 16 16 15 15 15 15 15 14 14 14 14 15 14 15 16 17 17 15 15 15 15 15 15
18 17 17 17 17 17 17 17 17 17 17 17 17 17 17 16 16 16 16 16 16 15 15 15 15 15 14 14 14 14 14 14 14 14 15 16 17 16 16 15 14 14 14
19 18 17 17 17 17 17 17 17 17 17 17 17 17 17 17 16 16 16 16 15 15 15 15 14 14 14 14 14 13 13 13 14 14 13 14 14 15 16 15 15 14 14
19 18 18 17 17 17 17 17 17 17 17 17 17 16 16 16 16 16 16 15 15 15 15 14 14 14 14 13 13 13 13 13 13 14 14 14 13 14 14 15 15 15 14
19 19 18 18 17 17 17 17 17 17 17 17 17 16 16 16 16 16 15 15 15 14 14 14 14 13 13 13 13 13 13 12 12 13 13 13 14 14 14 15 14 15 14
20 19 18 18 17 17 17 17 17 17 17 17 17 16 16 16 16 15 15 15 15 14 14 14 13 13 13 13 13 12 12 12 12 12 12 12 13 13 13 13 14 14 14
20 19 19 18 18 17 17 17 17 17 17 17 17 16 16 16 15 15 15 15 15 14 14 13 13 13 13 13 12 12 12 12 11 12 12 12 12 12 12 13 13 14 14
21 20 19 19 18 18 17 17 17 17 17 17 17 16 16 16 15 15 15 14 14 14 14 13 13 13 13 12 12 12 12 11 11 12 11 11 12 12 12 12 12 13 13
21 21 20 19 19 18 18 17 17 17 17 17 17 16 16 16 15 15 14 14 14 14 13 13 13 13 12 12 12 12 12 11 11 11 11 11 11 11 11 11 12 12 12
22 21 20 20 19 19 18 18 17 17 17 17 17 16 16 15 15 15 14 14 14 14 13 13 13 13 12 12 12 12 12 11 11 11 11 11 11 11 11 11 11 11 11
22 22 21 20 20 19 19 18 18 18 18 17 17 16 16 16 15 15 14 14 14 14 13 13 13 13 12 12 12 12 12 12 11 11 11 11 11 11 11 11 11 11 11
23 22 21 21 20 19 19 19 18 18 18 17 17 17 16 16 15 15 15 14 14 14 13 13 13 13 13 12 12 12 12 12 11 11 11 11 11 11 11 10 11 11 11
22 22 21 21 20 20 19 19 18 18 18 18 17 17 17 16 16 15 15 15 14 14 14 13 13 13 13 12 12 12 12 12 11 11 11 11 11 11 10 10 10 10 10
22 22 21 21 20 20 19 19 19 18 18 18 18 17 17 16 16 15 15 15 14 14 14 14 13 13 13 13 13 12 12 12 12 11 11 11 11 11 11 11 10 10 10
23 22 21 21 20 20 20 19 19 19 19 18 18 17 17 17 16 16 15 15 15 14 14 14 14 13 13 13 13 13 12 12 12 12 11 11 11 11 11 11 11 10 10
23 22 22 21 21 20 20 19 19 19 19 19 18 18 17 17 17 16 15 15 15 15 14 14 14 14 14 14 14 13 13 12 12 12 11 11 12 11 10 10 10 10 10
23 22 22 21 21 20 20 19 19 19 19 19 18 18 18 17 17 16 16 15 15 15 15 14 14 14 14 14 14 13 13 12 12 12 12 11 11 11 11 10 10 10 10
22 22 21 21 21 20 20 19 19 19 19 18 18 18 17 17 17 16 16 16 15 15 15 15 14 14 14 14 14 13 13 12 12 12 12 12 11 11 11 11 10 10 10
21 21 21 21 20 20 20 19 19 19 18 18 18 18 17 17 17 17 16 16 15 15 14 14 14 14 14 14 14 13 13 12 12 12 12 12 12 12 11 11 10 10 10
20 20 20 20 20 20 20 19 19 19 19 18 18 17 17 17 16 16 16 15 15 14 14 14 14 14 14 14 14 13 13 12 12 12 12 12 12 12 11 11 10 10 10
19 19 19 19 19 19 19 19 18 18 17 17 17 17 17 16 16 15 15 15 15 14 14 14 14 14 14 14 14 13 13 13 12 12 12 12 12 11 11 11 11 11 10
18 18 18 18 18 18 18 18 17 17 17 17 16 16 16 15 15 15 15 15 14 14 14 14 14 14 14 13 13 13 13 12 12 12 11 11 11 11 11 11 11 11 10
17 17 17 17 17 17 17 17 17 17 16 16 16 16 15 15 15 15 14 14 14 14 14 14 14 13 13 13 12 12 12 12 12 11 11 11 11 11 11 11 10 10 10
16 16 16 16 16 17 16 16 16 16 16 15 15 15 15 14 14 14 14 14 14 13 13 13 13 13 13 12 12 12 11 11 11 11 10 11 11 11 11 11 11 10 10
15 15 15 15 15 15 15 15 15 15 15 15 14 14 14 13 13 13 13 13 13 13 13 13 13 12 12 12 12 11 11 11 11 10 10 11 11 11 11 11 11 11 11
Wind_Speed
9 10 10 10 11 10 10 10 10 10 8 8 8 7 7 6 6 6 7 6 6 6 3 3 4 2 2 1 0 1 1 2 3 4 4 3 3 1 1 2 2 2 2
10 10 10 10 10 10 10 10 10 10 9 7 6 6 6 6 6 5 6 6 5 5 5 3 3 2 2 1 0 1 3 2 2 4 5 3 3 3 1 1 0 1 1
12 12 12 11 11 11 11 10 10 10 9 9 7 7 6 6 6 6 5 5 5 4 3 3 2 2 2 1 0 1 2 3 2 3 4 4 3 2 2 1 1 1 2
12 13 13 13 13 13 11 11 11 10 10 9 8 9 7 6 6 5 5 6 5 4 4 4 3 2 1 1 2 1 2 3 3 1 1 3 5 5 3 3 2 1 3
13 14 14 14 14 14 13 12 11 10 10 9 9 8 7 6 6 6 7 5 5 4 4 4 3 2 1 1 1 0 3 3 3 3 3 3 3 5 6 6 4 4 4
14 13 13 14 13 14 13 13 12 11 10 9 8 7 7 7 7 7 7 6 5 4 4 4 3 2 1 1 1 1 1 2 2 4 4 4 4 4 5 6 6 6 4
15 15 15 15 15 15 15 14 13 12 11 10 9 8 8 8 8 7 7 5 5 5 5 4 3 2 2 2 1 2 1 2 2 3 3 4 4 4 5 6 7 7 6
16 17 17 16 16 16 16 15 14 13 12 11 10 9 9 7 7 7 6 6 5 4 5 5 4 3 3 3 2 3 2 2 3 3 3 4 4 4 5 6 7 8 7
17 17 18 17 17 17 17 17 15 14 13 12 11 10 9 7 7 7 7 6 5 5 6 5 5 4 4 3 3 2 2 3 4 4 4 5 4 5 5 5 6 7 9
17 17 17 17 17 17 17 16 16 15 14 13 12 10 10 9 8 8 7 6 6 5 6 5 5 4 4 4 4 4 3 4 4 4 4 5 5 4 5 6 6 7 8
18 18 17 17 17 17 17 16 16 15 14 13 12 11 11 10 10 9 8 8 7 7 7 6 6 6 5 5 5 5 4 5 5 5 5 6 6 6 6 6 6 7 8
17 18 18 18 17 17 17 17 16 15 15 14 13 13 11 11 11 10 9 8 8 8 7 7 7 7 6 6 6 6 6 6 6 6 6 7 6 6 7 7 7 7 8
17 17 18 18 18 18 17 17 16 16 15 15 14 13 13 12 11 10 9 9 9 8 8 8 8 7 7 7 7 7 6 7 7 7 7 7 7 8 7 7 8 8 8
17 17 17 17 18 17 17 17 17 16 16 15 15 14 14 13 12 11 10 10 9 9 9 9 8 8 8 8 7 7 7 7 8 8 8 8 8 9 8 8 9 9 9
17 18 18 17 17 18 17 17 17 16 16 16 16 15 14 13 12 11 11 10 10 10 9 9 9 9 8 8 8 7 8 8 8 8 9 9 8 7 8 9 9 9 9
17 18 18 18 18 18 18 17 17 17 17 16 16 14 14 13 13 12 11 11 11 10 10 10 10 10 8 5 4 8 9 9 9 9 9 9 10 11 14 14 13 12 12
16 17 17 17 16 17 17 17 17 16 16 16 15 14 14 13 13 13 12 12 12 11 11 11 11 10 8 9 10 10 10 11 10 10 10 10 9 8 11 13 16 16 18
13 14 14 14 14 14 15 15 15 15 16 16 15 14 14 14 13 12 12 12 11 11 11 11 11 10 10 12 12 11 12 12 12 12 12 12 12 11 10 12 12 13 13
9 10 11 11 11 12 13 14 14 15 15 15 14 14 14 13 13 13 13 12 11 11 11 11 11 11 10 12 13 12 10 11 13 13 13 13 13 10 9 12 14 14 14
5 6 7 7 8 10 11 13 13 14 14 14 13 12 12 12 12 12 11 10 10 11 11 11 11 11 11 11 14 13 10 11 11 12 13 14 16 12 11 13 14 15 14
5 6 6 6 6 8 10 11 11 12 12 11 11 11 11 11 11 10 9 9 9 10 10 10 10 11 12 11 14 15 11 12 12 12 12 11 14 16 15 14 14 15 14
6 7 7 6 6 7 9 8 8 8 7 8 9 9 9 9 9 9 9 9 9 10 10 10 11 10 11 12 12 16 17 15 14 13 13 11 9 14 15 14 15 15 12
7 7 8 7 6 6 6 7 7 6 7 7 8 8 8 8 8 9 9 8 9 9 9 9 9 9 9 9 14 16 17 17 14 14 14 14 8 10 13 18 18 14 13
8 8 8 8 7 6 5 4 5 5 6 7 6 6 6 7 7 6 7 8 8 9 9 8 9 9 9 9 8 8 10 14 14 14 15 16 17 16 16 14 13 14 14
7 7 7 7 7 6 5 4 5 5 4 4 4 4 4 4 5 6 6 7 7 6 7 8 8 9 10 7 5 7 9 10 8 8 11 13 13 13 13 13 13 13 13
8 8 7 7 7 6 6 5 4 4 3 3 2 2 2 2 4 5 6 8 9 7 10 11 10 10 10 10 9 10 11 11 7 8 13 14 14 14 14 13 13 12 13
Wind_Direction
164 159 158 158 156 156 157 161 158 155 158 156 158 154 149 148 146 143 141 150 148 148 159 143 139 167 111 85 359 312 283 304 326 298 286 247 227 246 250 283 293 268 265
166 161 159 161 162 162 166 162 160 158 163 153 151 147 140 147 142 135 137 151 153 160 166 151 169 147 141 143 101 332 315 328 337 317 305 281 213 189 184 243 262 326 292
172 167 168 170 166 166 171 167 160 159 161 156 152 144 142 152 152 155 152 149 154 160 151 167 184 183 231 161 197 287 313 320 318 337 318 308 319 317 187 175 251 323 321
172 169 171 173 172 170 170 166 163 162 163 168 170 171 172 168 160 163 149 151 157 157 160 175 181 199 217 165 236 83 302 296 304 304 304 317 332 304 292 231 211 264 287
177 173 172 172 171 169 168 165 164 164 167 174 175 181 177 163 156 156 145 159 153 161 165 167 170 182 202 143 347 317 298 296 305 313 308 298 270 267 286 292 298 284 282
179 174 170 169 169 170 169 167 167 168 171 176 179 185 171 167 163 167 162 174 165 166 162 163 164 183 166 157 212 266 246 316 332 312 304 298 297 297 294 290 287 293 296
180 177 175 174 174 174 174 172 173 174 175 178 181 182 176 174 176 181 177 186 177 173 164 169 173 174 164 186 216 232 287 271 281 283 294 301 298 302 297 295 298 298 292
182 182 181 180 179 177 177 176 178 179 179 182 182 180 178 184 180 184 183 184 188 173 160 175 179 183 191 201 205 238 224 236 260 275 294 288 284 292 290 294 301 298 295
182 183 183 183 182 180 181 182 181 181 182 183 179 178 182 186 174 171 187 181 178 172 173 182 186 190 196 207 223 240 239 239 255 259 244 264 280 274 283 285 287 294 298
182 181 183 184 184 183 182 184 184 184 184 183 184 181 181 181 178 185 183 180 179 178 183 192 196 199 204 210 230 236 218 242 249 262 281 277 278 281 276 277 278 280 286
183 182 182 183 183 183 182 185 186 185 185 187 187 183 183 182 183 187 186 185 189 188 195 200 205 209 215 219 227 247 234 242 249 250 250 256 276 280 283 275 275 276 279
183 183 182 183 184 186 187 187 189 189 188 187 187 187 186 186 190 191 191 191 194 199 203 207 212 218 221 224 231 240 240 244 249 252 257 260 258 258 270 278 277 278 280
184 183 184 186 189 191 192 192 193 193 191 188 189 189 190 192 196 195 194 197 200 205 208 212 219 224 226 228 232 239 245 248 252 255 257 259 261 262 268 272 276 279 277
187 187 187 191 193 195 195 196 197 196 192 190 192 192 194 196 198 199 197 200 204 207 211 215 222 228 231 231 233 236 242 249 252 254 256 258 259 259 265 265 265 271 279
191 193 193 195 196 198 198 199 197 195 193 192 195 195 196 196 199 200 201 203 207 212 213 218 223 228 231 233 234 240 243 247 253 254 252 253 254 273 266 273 280 279 275
198 198 199 199 200 201 200 199 198 194 191 194 196 195 195 195 198 200 202 204 209 215 216 221 226 229 234 162 190 248 257 253 254 257 258 257 237 233 228 242 255 266 269
202 201 202 203 203 203 202 200 196 191 191 195 195 194 196 199 201 203 204 207 211 214 219 225 229 234 226 179 200 222 252 258 258 259 260 264 264 243 253 235 226 239 241
205 204 204 203 203 202 200 199 193 190 193 195 197 197 198 202 203 207 210 212 215 217 221 227 231 235 227 190 205 214 238 253 256 255 256 259 266 262 259 266 263 261 253
202 203 205 202 197 196 193 190 189 189 193 197 199 199 200 202 202 207 212 215 218 222 225 228 232 236 233 199 203 214 245 248 252 255 255 256 260 249 227 254 264 267 267
180 183 185 185 181 184 181 184 188 189 194 196 196 196 198 203 206 209 212 215 220 228 233 234 235 238 242 209 200 209 245 254 258 256 253 243 240 248 216 246 259 265 269
144 147 145 147 155 161 166 179 186 192 194 190 186 189 194 202 208 207 207 212 220 229 236 241 240 241 243 225 203 207 238 256 261 265 264 261 207 217 221 233 252 261 271
115 122 125 126 132 144 155 170 182 184 181 178 180 186 190 200 202 203 205 211 220 227 233 239 247 246 240 237 222 210 223 247 259 264 269 272 202 207 218 229 244 250 257
95 105 113 112 114 132 152 165 168 162 164 170 180 186 188 198 204 205 207 212 218 233 238 240 247 252 250 236 218 216 222 230 245 261 269 279 260 230 237 237 237 240 247
83 90 99 106 109 117 132 143 144 152 156 163 170 177 186 195 200 214 219 224 229 237 244 249 254 259 258 259 252 240 234 227 238 255 260 250 247 246 259 262 240 238 245
75 81 89 94 96 98 100 104 114 131 145 160 177 187 196 210 214 217 229 233 237 245 253 260 264 268 270 276 297 281 274 276 284 288 269 267 263 256 252 251 251 250 247
77 78 80 82 83 83 80 77 92 118 139 152 172 198 207 212 237 242 243 227 240 235 237 247 261 272 271 286 282 271 271 276 281 273 265 266 267 265 266 265 263 257 251
Height
1520 1522 1525 1528 1531 1534 1538 1541 1545 1548 1551 1554 1557 1559 1561 1563 1565 1567 1568 1570 1571 1572 1573 1574 1574 1575 1576 1576 1577 1577 1577 1577 1576 1576 1576 1575 1574 1574 1573 1574 1574 1574 1573
1520 1522 1525 1528 1531 1533 1536 1541 1544 1547 1551 1553 1556 1558 1561 1563 1565 1566 1567 1569 1570 1571 1572 1572 1574 1574 1574 1574 1575 1575 1576 1576 1575 1575 1574 1574 1574 1572 1573 1572 1572 1572 1572
1519 1522 1524 1527 1530 1533 1536 1541 1544 1547 1550 1553 1556 1558 1560 1562 1564 1566 1567 1568 1569 1570 1570 1571 1572 1573 1574 1574 1573 1573 1574 1575 1574 1573 1574 1573 1571 1572 1572 1571 1571 1570 1570
1518 1520 1523 1526 1529 1533 1537 1540 1543 1547 1549 1552 1555 1558 1560 1562 1564 1565 1566 1566 1568 1568 1569 1570 1570 1571 1572 1572 1572 1572 1572 1572 1573 1573 1572 1572 1572 1572 1570 1570 1570 1569 1568
1516 1519 1523 1526 1529 1533 1536 1540 1543 1546 1549 1551 1554 1557 1559 1561 1562 1563 1564 1565 1566 1567 1568 1568 1568 1569 1570 1570 1570 1570 1570 1571 1571 1572 1571 1571 1571 1570 1570 1569 1569 1568 1567
1514 1518 1521 1525 1528 1532 1535 1539 1542 1545 1548 1550 1553 1555 1557 1559 1561 1562 1563 1565 1566 1566 1566 1567 1567 1568 1568 1568 1568 1568 1568 1568 1568 1569 1570 1570 1570 1569 1568 1567 1566 1566 1565
1512 1516 1520 1523 1527 1530 1534 1537 1540 1543 1546 1549 1551 1553 1555 1557 1559 1561 1562 1564 1565 1565 1564 1566 1565 1566 1566 1566 1566 1566 1567 1567 1566 1566 1567 1568 1568 1567 1567 1566 1565 1564 1563
1510 1513 1517 1521 1525 1528 1532 1535 1539 1542 1545 1547 1550 1552 1554 1556 1558 1559 1561 1562 1564 1564 1563 1563 1564 1564 1565 1565 1565 1566 1565 1565 1565 1565 1565 1565 1565 1565 1565 1564 1563 1562 1560
1507 1511 1515 1519 1523 1527 1530 1533 1537 1540 1543 1545 1548 1550 1552 1554 1556 1557 1558 1560 1560 1561 1561 1562 1562 1563 1563 1563 1563 1564 1563 1563 1563 1564 1563 1563 1563 1563 1562 1562 1561 1561 1559
1504 1508 1512 1517 1521 1525 1528 1532 1535 1538 1541 1543 1546 1548 1550 1551 1553 1555 1556 1557 1558 1558 1559 1560 1560 1561 1561 1561 1561 1562 1561 1561 1561 1561 1560 1560 1561 1560 1560 1559 1559 1558 1557
1500 1505 1510 1514 1519 1522 1526 1529 1533 1535 1538 1541 1543 1546 1548 1549 1551 1552 1553 1554 1555 1556 1557 1558 1558 1559 1559 1559 1559 1560 1559 1559 1559 1559 1559 1558 1557 1558 1558 1557 1556 1555 1554
1497 1502 1507 1511 1516 1519 1523 1526 1529 1532 1535 1538 1540 1543 1545 1547 1548 1550 1551 1552 1553 1554 1555 1555 1556 1557 1557 1557 1557 1557 1557 1557 1557 1557 1556 1555 1555 1554 1554 1553 1553 1552 1550
1494 1499 1504 1508 1512 1516 1519 1523 1526 1529 1532 1535 1537 1540 1542 1544 1545 1547 1548 1549 1550 1551 1552 1553 1554 1554 1554 1554 1554 1554 1554 1554 1554 1553 1553 1552 1552 1551 1551 1549 1549 1548 1547
1491 1495 1500 1504 1508 1512 1515 1519 1522 1525 1528 1531 1533 1536 1538 1540 1542 1544 1545 1546 1547 1548 1549 1550 1551 1551 1551 1551 1551 1551 1551 1551 1550 1550 1549 1548 1548 1547 1546 1545 1544 1543 1542
1487 1491 1495 1499 1503 1507 1511 1514 1517 1521 1524 1527 1529 1532 1534 1537 1539 1540 1542 1543 1544 1545 1546 1547 1547 1548 1548 1548 1549 1548 1548 1547 1547 1546 1545 1545 1543 1542 1542 1541 1541 1539 1538
1482 1486 1490 1494 1498 1501 1505 1509 1512 1515 1519 1522 1525 1528 1530 1532 1534 1536 1538 1539 1540 1541 1542 1543 1544 1544 1545 1544 1544 1544 1544 1544 1543 1542 1541 1540 1538 1537 1536 1535 1535 1534 1533
1478 1482 1485 1489 1492 1496 1499 1503 1506 1510 1513 1517 1520 1523 1525 1528 1530 1532 1533 1535 1536 1537 1538 1539 1539 1540 1540 1540 1540 1539 1539 1539 1538 1538 1537 1536 1536 1533 1532 1530 1528 1527 1526
1474 1478 1481 1485 1488 1492 1495 1498 1502 1505 1508 1512 1515 1517 1520 1523 1525 1527 1529 1530 1532 1533 1533 1534 1535 1535 1535 1535 1535 1534 1534 1533 1533 1532 1531 1530 1529 1529 1527 1526 1525 1523 1521
1472 1475 1478 1480 1484 1487 1490 1493 1497 1500 1503 1506 1509 1512 1515 1518 1520 1522 1524 1526 1527 1528 1529 1529 1529 1529 1530 1530 1530 1529 1528 1528 1528 1527 1526 1524 1523 1522 1521 1520 1518 1516 1515
1469 1472 1475 1477 1480 1483 1486 1489 1492 1495 1498 1502 1505 1508 1510 1513 1515 1517 1519 1520 1522 1523 1524 1524 1524 1524 1524 1524 1524 1524 1523 1523 1523 1521 1520 1518 1517 1516 1515 1513 1512 1510 1509
1468 1470 1472 1475 1477 1479 1482 1485 1489 1491 1494 1497 1500 1503 1505 1507 1509 1511 1513 1515 1516 1517 1518 1519 1519 1518 1518 1518 1517 1517 1517 1517 1516 1516 1514 1513 1510 1509 1508 1506 1505 1503 1502
1467 1468 1470 1472 1475 1476 1479 1482 1485 1488 1491 1493 1496 1498 1500 1503 1505 1506 1508 1509 1510 1511 1512 1512 1512 1512 1512 1511 1510 1510 1510 1510 1509 1508 1508 1507 1504 1502 1500 1499 1497 1496 1495
1468 1469 1470 1472 1474 1476 1478 1481 1483 1485 1487 1490 1492 1494 1496 1498 1500 1501 1502 1503 1504 1505 1506 1506 1506 1506 1506 1505 1504 1503 1503 1502 1501 1500 1499 1498 1496 1494 1492 1490 1489 1488 1486
1469 1470 1471 1473 1475 1476 1478 1480 1481 1483 1485 1487 1489 1490 1492 1493 1495 1496 1497 1498 1499 1500 1500 1500 1499 1499 1499 1499 1498 1496 1495 1494 1493 1491 1490 1488 1487 1485 1483 1482 1480 1478 1477
1470 1471 1473 1474 1475 1476 1477 1479 1479 1481 1483 1485 1487 1488 1489 1490 1490 1491 1492 1493 1493 1494 1494 1494 1493 1493 1492 1492 1491 1490 1489 1488 1487 1484 1483 1481 1480 1478 1475 1474 1472 1471 1469
1473 1473 1474 1475 1476 1476 1477 1478 1478 1479 1481 1483 1484 1485 1486 1486 1487 1487 1488 1487 1488 1487 1487 1486 1486 1484 1484 1484 1483 1482 1481 1480 1478 1476 1474 1473 1471 1469 1468 1466 1464 1462 1461